| time (UTC) | temp C | wind direction | speed KPH | gust KPH | rain 1hr cm | rain 24hr cm | rain mn cm | humidity % | barometer mb |
| 20260904181519 | 34 | 146 | 3.2 | 16.1 | 0.00 | 0.00 | 0.00 | 48 | 1013.1 |
| 20260904180052 | 33 | 206 | 8.0 | 16.1 | 0.00 | 0.00 | 0.00 | 48 | 1013.5 |
| 20260904174515 | 33 | 143 | 6.4 | 22.5 | 0.00 | 0.00 | 0.00 | 50 | 1013.6 |
| 20260904173049 | 33 | 229 | 6.4 | 12.9 | 0.00 | 0.00 | 0.00 | 52 | 1013.9 |
| 20260904171543 | 32 | 159 | 6.4 | 14.5 | 0.00 | 0.00 | 0.00 | 55 | 1014.0 |
| 20260904170052 | 31 | 219 | 1.6 | 11.3 | 0.00 | 0.00 | 0.00 | 57 | 1014.2 |
| 20260904164521 | 31 | 146 | 4.8 | 12.9 | 0.00 | 0.00 | 0.00 | 58 | 1014.2 |
| 20260904163056 | 31 | 231 | 6.4 | 11.3 | 0.00 | 0.00 | 0.00 | 60 | 1014.1 |
| 20260904161527 | 31 | 206 | 8.0 | 14.5 | 0.00 | 0.00 | 0.00 | 60 | 1014.1 |
| 20260904160100 | 31 | 167 | 6.4 | 12.9 | 0.00 | 0.00 | 0.00 | 62 | 1014.0 |
| 20260904154538 | 30 | 184 | 4.8 | 11.3 | 0.00 | 0.00 | 0.00 | 66 | 1013.9 |
| 20260904153112 | 30 | 165 | 3.2 | 11.3 | 0.00 | 0.00 | 0.00 | 68 | 1013.7 |
| 20260904151533 | 29 | 160 | 3.2 | 11.3 | 0.00 | 0.00 | 0.00 | 70 | 1013.7 |
| 20260904150002 | 29 | 189 | 3.2 | 6.4 | 0.00 | 0.00 | 0.00 | 72 | 1013.6 |
| 20260904144532 | 28 | 238 | 1.6 | 6.4 | 0.00 | 0.00 | 0.00 | 75 | 1013.7 |
| 20260904143101 | 28 | 132 | 1.6 | 4.8 | 0.00 | 0.00 | 0.00 | 76 | 1013.6 |
| 20260904141532 | 28 | 108 | 3.2 | 9.7 | 0.00 | 0.00 | 0.00 | 78 | 1013.6 |
| 20260904140003 | 27 | 199 | 1.6 | 8.0 | 0.00 | 0.00 | 0.00 | 80 | 1013.5 |
| 20260904134545 | 27 | 146 | 3.2 | 4.8 | 0.00 | 0.00 | 0.00 | 82 | 1013.2 |
| 20260904133012 | 26 | 193 | 0.0 | 1.6 | 0.00 | 0.00 | 0.00 | 83 | 1013.3 |
| 20260904131545 | 26 | 129 | 0.0 | 0.0 | 0.00 | 0.00 | 0.00 | 84 | 1013.1 |
| 20260904130021 | 26 | 88 | 0.0 | 0.0 | 0.00 | 0.00 | 0.00 | 83 | 1013.1 |
| 20260904124556 | 25 | 89 | 0.0 | 0.0 | 0.00 | 0.00 | 0.00 | 83 | 1013.1 |
| 20260904123028 | 25 | 88 | 0.0 | 0.0 | 0.00 | 0.00 | 0.00 | 83 | 1013.0 |
| 20260904121600 | 25 | 88 | 0.0 | 0.0 | 0.00 | 0.00 | 0.00 | 82 | 1012.9 |
| 20260904120048 | 25 | 89 | 0.0 | 0.0 | 0.00 | 0.00 | 0.00 | 82 | 1012.8 |
| 20260904114509 | 26 | 88 | 0.0 | 0.0 | 0.00 | 0.00 | 0.00 | 82 | 1012.8 |
| 20260904113041 | 26 | 89 | 0.0 | 0.0 | 0.00 | 0.00 | 0.00 | 82 | 1012.6 |
| 20260904111516 | 26 | 88 | 0.0 | 0.0 | 0.00 | 0.00 | 0.00 | 82 | 1012.6 |
| 20260904110055 | 26 | 88 | 0.0 | 1.6 | 0.00 | 0.00 | 0.00 | 82 | 1012.6 |
| 20260904104534 | 26 | 98 | 0.0 | 1.6 | 0.00 | 0.00 | 0.00 | 82 | 1012.5 |
| 20260904103100 | 26 | 98 | 0.0 | 1.6 | 0.00 | 0.00 | 0.00 | 82 | 1012.3 |
| 20260904101540 | 26 | 104 | 0.0 | 1.6 | 0.00 | 0.00 | 0.00 | 82 | 1012.3 |
| 20260904100012 | 26 | 116 | 0.0 | 1.6 | 0.00 | 0.00 | 0.00 | 82 | 1012.2 |
| 20260904094557 | 26 | 117 | 0.0 | 1.6 | 0.00 | 0.00 | 0.00 | 81 | 1012.1 |
| 20260904093017 | 26 | 129 | 0.0 | 1.6 | 0.00 | 0.00 | 0.00 | 81 | 1011.9 |
| 20260904091552 | 26 | 129 | 0.0 | 0.0 | 0.00 | 0.00 | 0.00 | 81 | 1011.9 |
| 20260904090028 | 26 | 129 | 0.0 | 0.0 | 0.00 | 0.00 | 0.00 | 81 | 1011.8 |
| 20260904084601 | 26 | 129 | 0.0 | 1.6 | 0.00 | 0.00 | 0.00 | 80 | 1011.8 |
| 20260904083033 | 26 | 129 | 0.0 | 0.0 | 0.00 | 0.00 | 0.00 | 80 | 1011.9 |
| 20260904081507 | 26 | 129 | 0.0 | 0.0 | 0.00 | 0.00 | 0.00 | 80 | 1011.9 |
| 20260904080042 | 26 | 129 | 0.0 | 1.6 | 0.00 | 0.00 | 0.00 | 79 | 1011.9 |
| 20260904074513 | 26 | 129 | 0.0 | 1.6 | 0.00 | 0.00 | 0.00 | 79 | 1011.9 |
| 20260904073046 | 26 | 186 | 0.0 | 0.0 | 0.00 | 0.00 | 0.00 | 79 | 1012.1 |
| 20260904071520 | 26 | 187 | 0.0 | 0.0 | 0.00 | 0.00 | 0.00 | 78 | 1012.2 |
| 20260904070155 | 26 | 187 | 0.0 | 0.0 | 0.00 | 0.00 | 0.00 | 78 | 1012.3 |
| 20260904064526 | 27 | 187 | 0.0 | 3.2 | 0.00 | 0.00 | 0.00 | 78 | 1012.4 |
| 20260904063104 | 26 | 146 | 0.0 | 1.6 | 0.00 | 0.00 | 0.00 | 77 | 1012.4 |
| 20260904061531 | 27 | 125 | 0.0 | 3.2 | 0.00 | 0.00 | 0.00 | 77 | 1012.3 |
| 20260904060119 | 27 | 186 | 0.0 | 4.8 | 0.00 | 0.00 | 0.00 | 76 | 1012.4 |
| 20260904054528 | 27 | 127 | 0.0 | 6.4 | 0.00 | 0.00 | 0.00 | 75 | 1012.3 |
| 20260904053148 | 27 | 202 | 1.6 | 9.7 | 0.00 | 0.00 | 0.00 | 75 | 1012.4 |
| 20260904051536 | 27 | 119 | 1.6 | 12.9 | 0.00 | 0.00 | 0.00 | 74 | 1012.3 |
| 20260904050103 | 27 | 136 | 4.8 | 12.9 | 0.00 | 0.00 | 0.00 | 74 | 1012.1 |
| 20260904044531 | 27 | 124 | 4.8 | 11.3 | 0.00 | 0.00 | 0.00 | 73 | 1012.0 |
| 20260904043002 | 28 | 133 | 6.4 | 17.7 | 0.00 | 0.00 | 0.00 | 73 | 1012.0 |
| 20260904041535 | 28 | 133 | 6.4 | 16.1 | 0.00 | 0.00 | 0.00 | 72 | 1012.0 |
| 20260904040007 | 28 | 158 | 3.2 | 19.3 | 0.00 | 0.00 | 0.00 | 71 | 1012.0 |
| 20260904034539 | 28 | 147 | 6.4 | 19.3 | 0.00 | 0.00 | 0.00 | 70 | 1012.0 |
| 20260904033011 | 28 | 143 | 6.4 | 20.9 | 0.00 | 0.00 | 0.00 | 69 | 1011.8 |
| 20260904031540 | 28 | 115 | 8.0 | 20.9 | 0.00 | 0.00 | 0.00 | 69 | 1011.9 |
| 20260904030011 | 28 | 208 | 9.7 | 20.9 | 0.00 | 0.00 | 0.00 | 68 | 1011.8 |
| 20260904024547 | 28 | 185 | 11.3 | 24.1 | 0.00 | 0.00 | 0.00 | 67 | 1011.6 |
| 20260904023017 | 28 | 119 | 8.0 | 17.7 | 0.00 | 0.00 | 0.00 | 65 | 1011.5 |
| 20260904021547 | 28 | 113 | 6.4 | 16.1 | 0.00 | 0.00 | 0.00 | 65 | 1011.4 |
| 20260904020019 | 29 | 79 | 8.0 | 17.7 | 0.00 | 0.00 | 0.00 | 64 | 1011.1 |
| 20260904014603 | 29 | 85 | 9.7 | 17.7 | 0.00 | 0.00 | 0.00 | 62 | 1011.0 |
| 20260904013021 | 30 | 67 | 9.7 | 19.3 | 0.00 | 0.00 | 0.00 | 61 | 1010.7 |
| 20260904011553 | 30 | 96 | 11.3 | 19.3 | 0.00 | 0.00 | 0.00 | 59 | 1010.4 |
| 20260904010023 | 30 | 103 | 8.0 | 25.7 | 0.00 | 0.00 | 0.00 | 58 | 1010.2 |
| 20260904004558 | 31 | 95 | 9.7 | 20.9 | 0.00 | 0.00 | 0.00 | 57 | 1010.3 |
| 20260904003027 | 31 | 62 | 14.5 | 30.6 | 0.00 | 0.00 | 0.00 | 55 | 1010.2 |
| 20260904001608 | 31 | 98 | 14.5 | 32.2 | 0.00 | 0.00 | 0.00 | 55 | 1010.2 |
| 20260904000033 | 31 | 76 | 12.9 | 24.1 | 0.00 | 0.00 | 0.00 | 55 | 1009.9 |
| 20260903234502 | 31 | 89 | 12.9 | 29.0 | 0.00 | 0.00 | 0.00 | 55 | 1009.9 |
| 20260903233048 | 32 | 104 | 16.1 | 32.2 | 0.00 | 0.00 | 0.00 | 54 | 1009.8 |
| 20260903231506 | 32 | 124 | 14.5 | 25.7 | 0.00 | 0.00 | 0.00 | 53 | 1009.8 |
| 20260903224510 | 32 | 79 | 12.9 | 27.4 | 0.00 | 0.00 | 0.00 | 53 | 1009.8 |
| 20260903223107 | 32 | 65 | 14.5 | 30.6 | 0.00 | 0.00 | 0.00 | 52 | 1009.7 |
| 20260903221513 | 32 | 103 | 12.9 | 29.0 | 0.00 | 0.00 | 0.00 | 53 | 1009.5 |
| 20260903220045 | 35 | 68 | 19.3 | 35.4 | 0.00 | 0.00 | 0.00 | 45 | 1009.3 |
| 20260903214516 | 37 | 70 | 8.0 | 19.3 | 0.00 | 0.00 | 0.00 | 34 | 1009.0 |
| 20260903213104 | 38 | 96 | 11.3 | 20.9 | 0.00 | 0.00 | 0.00 | 32 | 1009.1 |
| 20260903211518 | 38 | 129 | 6.4 | 17.7 | 0.00 | 0.00 | 0.00 | 31 | 1009.3 |
| 20260903210112 | 38 | 58 | 6.4 | 19.3 | 0.00 | 0.00 | 0.00 | 31 | 1009.4 |
| 20260903204520 | 38 | 109 | 8.0 | 19.3 | 0.00 | 0.00 | 0.00 | 32 | 1009.6 |
| 20260903203052 | 39 | 128 | 4.8 | 16.1 | 0.00 | 0.00 | 0.00 | 32 | 1009.8 |
| 20260903201522 | 38 | 114 | 8.0 | 20.9 | 0.00 | 0.00 | 0.00 | 34 | 1010.1 |
| 20260903200052 | 38 | 121 | 4.8 | 17.7 | 0.00 | 0.00 | 0.00 | 33 | 1010.3 |
| 20260903194533 | 38 | 214 | 3.2 | 14.5 | 0.00 | 0.00 | 0.00 | 34 | 1010.3 |
| 20260903193052 | 38 | 213 | 6.4 | 14.5 | 0.00 | 0.00 | 0.00 | 36 | 1010.5 |
| 20260903191527 | 37 | 255 | 4.8 | 14.5 | 0.00 | 0.00 | 0.00 | 36 | 1010.6 |
| 20260903184529 | 37 | 140 | 3.2 | 16.1 | 0.00 | 0.00 | 0.00 | 37 | 1011.1 |
| 20260903183110 | 37 | 108 | 3.2 | 11.3 | 0.00 | 0.00 | 0.00 | 38 | 1011.2 |